Temp
11 10 10 10 9 9 9 8 6 6 6 5 4 4 4 4 3 3 3 2 2 1 0 -1 -1 -1 -2 -2 -2 -2 -2 -2 -2 -1 -0 1 1 1 2 2 2 2 2
10 9 9 9 8 7 7 6 6 6 5 4 3 3 3 3 3 3 2 1 1 -0 -1 -2 -2 -3 -3 -3 -4 -4 -4 -4 -3 -3 -2 -0 0 0 0 0 1 1 1
9 9 9 8 8 7 7 7 6 6 5 4 3 2 3 3 3 2 1 1 -0 -1 -2 -3 -3 -4 -4 -4 -5 -5 -5 -4 -4 -4 -3 -2 -1 -1 -1 -1 -0 -0 0
9 8 8 7 6 6 5 5 5 4 3 3 3 3 2 2 2 1 0 -1 -2 -2 -3 -4 -4 -4 -5 -5 -5 -5 -5 -5 -5 -4 -4 -4 -3 -1 -2 -2 -1 -1 -1
8 8 7 6 5 4 4 4 3 2 2 2 2 2 2 2 1 0 -1 -2 -3 -3 -4 -4 -5 -5 -5 -5 -5 -5 -5 -6 -5 -4 -4 -4 -4 -3 -3 -2 -2 -2 -2
7 7 6 5 4 4 4 3 2 2 1 2 1 2 1 -0 -1 -2 -3 -3 -4 -5 -5 -6 -6 -6 -6 -6 -6 -6 -6 -6 -5 -5 -5 -4 -4 -4 -3 -3 -3 -4 -5
6 5 5 4 3 3 3 2 1 0 0 1 1 0 -1 -1 -2 -3 -4 -5 -5 -6 -7 -7 -7 -7 -7 -7 -7 -7 -6 -6 -5 -5 -6 -5 -5 -4 -4 -4 -4 -4 -4
5 4 3 3 3 2 2 1 1 1 0 0 -0 -1 -2 -3 -4 -5 -5 -6 -7 -7 -8 -8 -8 -8 -8 -7 -7 -6 -6 -6 -6 -6 -6 -5 -5 -5 -5 -4 -4 -5 -5
4 3 3 3 2 2 1 1 1 1 0 -0 -1 -2 -3 -4 -5 -6 -6 -7 -8 -8 -8 -8 -8 -8 -8 -7 -6 -6 -6 -6 -6 -6 -6 -6 -6 -6 -5 -5 -5 -5 -5
4 3 3 2 1 1 1 1 1 1 -0 -2 -2 -3 -4 -5 -6 -7 -7 -8 -8 -9 -8 -8 -8 -8 -7 -7 -7 -7 -7 -6 -6 -6 -6 -6 -6 -6 -5 -5 -5 -6 -5
3 3 2 1 1 1 1 1 1 -0 -1 -2 -3 -4 -5 -6 -6 -7 -7 -8 -8 -8 -9 -9 -9 -8 -8 -8 -7 -7 -7 -7 -6 -7 -6 -6 -6 -6 -6 -6 -5 -6 -6
3 2 1 0 0 0 1 1 -0 -1 -2 -3 -4 -5 -5 -6 -7 -7 -8 -8 -8 -8 -9 -9 -9 -8 -8 -8 -8 -8 -8 -7 -7 -7 -7 -6 -6 -6 -5 -5 -5 -5 -5
2 1 0 -0 -0 -0 -0 -1 -2 -2 -3 -3 -4 -5 -5 -6 -7 -7 -8 -8 -8 -9 -9 -9 -9 -9 -9 -9 -9 -9 -8 -8 -8 -8 -7 -7 -6 -6 -5 -5 -4 -4 -4
1 0 -0 -1 -1 -1 -1 -2 -2 -3 -3 -4 -4 -5 -5 -6 -7 -7 -8 -8 -8 -9 -9 -9 -10 -10 -10 -10 -10 -9 -9 -9 -9 -9 -8 -7 -7 -6 -5 -5 -5 -4 -4
0 -0 -2 -1 -1 -2 -2 -2 -3 -3 -4 -4 -4 -5 -5 -6 -7 -7 -7 -8 -9 -9 -10 -10 -11 -11 -11 -11 -11 -10 -10 -10 -10 -10 -9 -9 -8 -7 -6 -5 -5 -5 -4
-1 -1 -2 -2 -2 -2 -3 -3 -4 -4 -4 -4 -4 -5 -5 -6 -7 -7 -7 -9 -9 -10 -10 -11 -11 -12 -12 -12 -12 -12 -12 -12 -11 -11 -10 -10 -9 -8 -7 -6 -5 -5 -5
-1 -2 -2 -2 -3 -3 -3 -3 -3 -4 -4 -4 -4 -5 -5 -6 -7 -7 -8 -9 -10 -10 -11 -11 -12 -12 -12 -12 -13 -13 -13 -12 -12 -11 -11 -10 -10 -9 -8 -7 -7 -6 -6
-2 -2 -2 -3 -3 -3 -3 -3 -4 -4 -4 -4 -5 -5 -5 -6 -7 -8 -8 -8 -9 -10 -11 -11 -12 -12 -12 -13 -13 -13 -13 -13 -12 -12 -11 -11 -10 -10 -9 -9 -8 -8 -7
-2 -2 -2 -3 -2 -3 -3 -3 -4 -4 -4 -5 -5 -5 -5 -6 -7 -7 -8 -8 -9 -10 -10 -11 -12 -12 -12 -13 -13 -13 -13 -13 -13 -12 -12 -11 -11 -11 -10 -10 -9 -8 -8
-2 -2 -3 -3 -3 -3 -4 -4 -4 -4 -4 -5 -5 -5 -5 -6 -6 -7 -7 -8 -9 -9 -10 -11 -11 -12 -12 -12 -13 -13 -13 -13 -13 -13 -12 -12 -12 -11 -11 -11 -10 -10 -9
-2 -2 -3 -3 -3 -3 -4 -4 -4 -4 -4 -4 -5 -5 -5 -6 -6 -7 -7 -8 -8 -9 -10 -10 -11 -11 -12 -12 -13 -13 -13 -13 -13 -13 -13 -12 -12 -12 -11 -11 -10 -10 -9
-2 -3 -3 -3 -3 -3 -4 -4 -4 -4 -4 -5 -4 -5 -5 -6 -6 -6 -7 -7 -8 -8 -9 -10 -10 -11 -11 -12 -13 -13 -13 -12 -12 -12 -13 -13 -13 -12 -12 -11 -10 -10 -10
-3 -4 -3 -3 -3 -4 -4 -4 -4 -4 -4 -4 -4 -5 -5 -5 -6 -6 -6 -7 -7 -8 -9 -9 -10 -11 -11 -12 -12 -13 -13 -13 -12 -13 -13 -13 -13 -13 -12 -12 -12 -11 -11
-3 -3 -3 -3 -3 -4 -4 -4 -4 -4 -4 -4 -4 -5 -5 -5 -5 -6 -6 -7 -7 -8 -8 -9 -10 -10 -11 -11 -12 -12 -13 -12 -12 -13 -13 -13 -13 -13 -13 -12 -12 -12 -11
-3 -3 -3 -3 -4 -4 -4 -4 -4 -4 -4 -4 -4 -4 -5 -5 -6 -6 -6 -7 -7 -7 -8 -9 -9 -10 -11 -11 -12 -12 -13 -12 -12 -12 -13 -13 -14 -13 -13 -13 -13 -13 -12
-3 -3 -3 -3 -3 -3 -4 -4 -4 -4 -4 -4 -4 -4 -4 -5 -5 -6 -6 -6 -7 -7 -8 -8 -9 -10 -10 -11 -12 -12 -12 -12 -12 -12 -13 -13 -14 -14 -13 -13 -13 -13 -13
Height
845 844 843 842 840 837 834 832 832 831 830 828 826 826 824 822 820 818 817 814 812 813 811 808 806 805 801 798 794 791 788 787 782 776 775 771 770 769 767 766 764 763 762
843 842 841 840 837 834 832 831 830 827 825 823 821 821 821 820 817 815 813 811 809 810 809 805 802 800 796 793 790 787 784 781 778 772 769 766 765 764 762 762 760 758 757
842 841 839 836 833 831 830 829 827 823 821 819 818 817 818 817 815 813 810 808 808 807 804 801 798 795 791 788 785 781 777 774 772 768 764 761 760 759 757 757 755 754 753
840 838 835 834 833 832 829 826 823 820 819 817 815 813 813 814 813 810 809 807 806 803 800 797 794 791 787 783 779 776 772 769 766 762 759 756 754 753 752 751 750 750 749
837 835 834 833 831 828 825 822 819 817 815 813 811 812 811 811 810 808 807 805 801 798 795 792 789 786 783 779 775 771 768 764 761 757 754 753 750 749 748 747 746 746 745
835 834 833 831 828 825 821 817 815 813 811 810 810 810 809 809 808 807 805 801 798 795 791 787 784 780 776 773 769 765 763 759 756 754 751 749 747 744 744 743 743 743 743
833 832 831 829 826 822 818 814 812 810 809 809 808 808 808 807 806 804 801 799 795 792 788 784 779 776 772 767 763 759 756 752 750 747 745 744 743 741 741 740 739 739 739
831 830 829 826 822 819 815 812 810 808 808 807 806 807 807 805 804 802 799 796 792 788 784 780 776 771 767 763 758 753 750 746 744 743 740 737 736 736 736 735 735 735 734
829 828 825 822 819 816 813 811 808 807 806 806 806 806 805 803 802 800 796 793 789 785 781 777 773 768 764 759 753 748 744 741 739 737 736 734 732 730 730 729 729 730 729
827 824 822 819 816 813 810 808 807 805 804 805 805 804 803 802 800 797 794 790 786 782 778 774 770 766 761 756 751 746 741 736 734 732 730 728 727 725 724 724 725 725 726
824 822 819 816 813 810 807 805 804 804 804 804 804 803 802 800 798 795 792 788 784 780 777 772 768 764 759 754 749 745 740 736 731 729 726 723 721 719 718 717 718 719 719
821 819 816 813 810 808 805 804 804 804 804 803 803 802 800 798 796 793 790 787 783 779 775 771 767 763 758 753 749 744 739 735 731 728 725 722 719 716 714 713 713 712 712
818 816 814 811 808 807 805 804 803 803 803 802 801 800 798 796 794 791 788 785 781 777 774 770 766 762 757 752 748 744 739 735 732 728 725 721 718 714 710 708 707 707 705
813 813 811 808 806 805 803 803 803 802 801 800 799 797 796 794 792 789 786 783 779 776 772 769 766 761 756 753 749 744 741 737 734 730 725 721 717 713 709 706 703 702 702
811 809 808 806 804 803 802 802 802 800 799 797 796 795 793 792 790 788 785 782 779 775 772 769 765 761 757 753 749 746 742 738 734 731 727 722 718 714 711 708 704 703 702
808 805 803 803 802 801 801 800 800 798 796 795 793 792 791 789 788 786 784 782 779 775 772 769 766 763 759 756 751 747 744 740 737 733 729 725 721 718 715 712 709 707 705
803 801 799 798 798 798 798 797 796 795 794 793 791 789 788 788 787 785 783 780 778 775 772 770 767 764 761 758 754 750 747 743 739 736 732 728 725 721 718 716 713 711 709
799 797 795 795 794 794 794 793 792 791 791 789 788 787 786 785 784 782 781 779 777 774 772 769 767 764 761 758 755 752 748 744 741 737 734 731 727 725 722 720 717 716 713
794 792 791 791 789 789 790 790 789 788 787 786 785 784 783 782 781 780 778 777 775 773 770 768 766 764 761 758 756 753 749 746 742 739 736 733 730 727 725 723 720 719 716
789 787 787 786 786 786 786 785 785 784 783 782 781 780 779 778 777 776 775 774 772 770 769 767 765 762 760 757 755 752 749 746 743 740 737 734 732 729 727 724 722 720 717
784 782 781 782 782 782 781 780 779 779 778 777 776 776 775 774 773 772 771 770 768 767 766 764 762 760 758 756 754 751 749 746 743 740 737 735 732 729 727 725 723 720 718
779 777 776 776 776 776 776 775 774 774 773 772 772 771 770 770 768 768 767 765 764 764 762 761 759 758 756 754 752 750 748 745 742 740 737 735 733 730 728 725 723 720 718
773 771 769 769 770 770 770 770 769 768 767 767 766 766 766 764 763 762 762 761 760 759 759 757 756 755 754 752 750 748 746 744 741 739 737 735 733 730 728 725 723 721 718
767 764 763 763 764 764 764 763 763 762 761 761 761 760 760 759 758 757 757 756 756 755 754 753 753 751 750 749 748 746 744 742 740 738 736 735 733 730 728 726 724 721 719
762 759 758 758 758 758 757 757 756 756 755 754 754 754 754 753 753 752 752 751 751 750 750 749 748 748 747 746 745 743 742 740 738 736 735 733 732 730 728 726 724 722 720
757 754 752 752 751 750 749 748 747 748 747 747 746 746 746 747 747 746 746 746 745 745 745 745 744 743 743 742 741 740 739 738 736 734 733 732 730 729 727 726 724 723 721
Wind_Speed
6 10 12 14 17 19 18 16 11 11 13 13 14 19 13 12 10 8 11 13 11 11 12 13 17 20 21 23 24 25 23 18 11 18 21 19 14 10 13 17 17 15 15
5 6 9 13 17 17 14 12 14 19 17 12 11 13 19 13 10 11 12 10 11 13 14 17 21 19 20 20 21 23 23 23 21 17 18 17 17 16 15 17 18 17 16
7 10 14 16 16 14 15 18 21 22 18 18 18 18 14 15 13 14 12 11 11 14 19 21 20 19 21 22 23 24 23 21 21 20 19 21 19 16 15 13 14 14 12
10 13 13 12 14 15 15 17 21 20 19 20 17 13 14 12 19 12 11 12 15 21 21 20 20 20 21 22 24 23 19 19 20 18 17 17 19 17 14 12 12 12 15
9 10 9 10 13 15 19 20 21 18 17 15 10 9 12 17 8 10 12 18 21 22 22 23 21 21 21 22 22 22 24 20 18 13 11 11 12 14 14 11 10 13 15
9 8 8 11 15 17 18 17 16 15 11 7 8 9 9 5 8 11 16 17 17 21 24 23 22 21 20 22 23 21 22 22 19 16 15 13 14 13 14 14 13 8 2
8 8 10 13 16 18 17 16 13 14 5 4 7 3 3 7 9 12 14 17 19 19 20 23 23 20 23 24 23 22 22 22 21 22 19 18 17 20 18 18 16 13 12
6 9 11 14 18 19 17 15 11 2 8 10 2 2 5 8 10 13 14 16 19 22 22 20 22 23 23 22 24 22 24 22 17 16 18 20 23 22 21 20 19 16 16
7 10 15 17 17 18 16 13 10 9 10 4 2 3 7 10 12 13 14 18 21 21 19 22 19 20 20 24 22 21 24 21 19 16 16 17 17 13 11 15 16 11 9
9 14 16 13 16 16 14 11 10 9 6 4 1 6 7 9 12 12 15 17 19 18 22 21 18 18 22 23 20 18 20 21 17 19 18 17 16 18 19 20 20 14 12
14 14 13 12 15 14 11 9 7 5 5 1 5 5 5 8 12 12 15 16 18 19 19 19 20 20 20 19 18 19 18 17 14 14 17 16 14 12 13 16 20 24 19
15 13 11 13 9 7 5 1 5 5 2 2 4 4 5 8 11 13 14 15 17 17 18 20 18 19 18 18 18 19 16 14 14 13 12 13 13 13 13 13 14 18 22
17 13 11 8 7 5 5 5 5 3 2 3 4 4 5 8 11 13 14 14 15 16 17 15 15 17 16 16 17 17 17 20 18 16 14 14 15 14 12 8 10 15 19
17 12 9 9 8 7 6 5 4 2 4 4 5 6 7 9 12 15 14 15 17 16 16 13 15 17 15 16 17 18 19 20 18 17 16 17 15 15 12 11 6 3 4
10 12 12 9 6 4 3 5 5 5 6 6 7 7 8 9 11 13 13 14 15 15 13 13 17 20 20 18 20 19 20 21 22 21 19 19 17 17 15 15 12 8 5
14 17 15 10 10 7 7 7 6 7 7 6 8 8 7 8 9 11 9 10 11 13 10 12 15 18 19 16 18 18 19 21 20 20 19 18 17 17 15 15 13 12 12
17 19 12 10 12 12 10 9 8 9 7 6 6 7 7 7 7 7 7 8 10 11 10 10 11 13 16 14 16 16 17 19 16 17 18 19 17 16 16 15 14 13 12
18 15 13 13 14 17 12 12 11 8 9 8 6 6 6 7 7 6 6 9 9 9 9 10 10 11 13 13 14 15 17 18 16 16 17 18 19 16 16 15 14 14 12
15 15 12 14 16 13 12 13 13 9 9 10 9 8 7 8 8 8 8 8 8 8 8 8 9 9 11 11 11 13 14 16 15 14 16 17 17 17 16 14 14 12 12
19 15 13 13 10 11 13 14 13 12 11 11 12 11 11 10 11 9 9 9 9 8 7 8 8 9 9 11 11 13 14 15 15 14 14 15 15 14 15 15 13 13 13
17 19 14 13 13 16 16 18 17 14 13 12 13 11 11 12 12 11 11 10 10 9 8 7 7 9 9 10 10 10 13 14 13 13 13 13 14 15 13 13 11 11 13
22 23 18 16 16 17 14 14 14 15 17 15 13 12 11 13 14 13 12 11 9 10 9 9 8 8 9 9 10 9 12 13 13 12 11 12 12 13 12 12 11 10 13
23 22 22 19 19 17 17 16 15 16 17 18 17 15 13 13 14 14 12 10 9 9 9 9 9 8 8 9 9 8 10 12 12 11 10 11 12 12 12 11 10 11 12
23 22 20 20 18 17 18 19 18 17 17 18 20 18 15 14 13 12 11 10 10 9 9 10 10 9 9 9 9 8 10 11 10 9 9 9 10 10 10 8 9 9 10
23 20 19 21 21 22 22 22 22 21 20 20 19 20 17 13 14 13 13 12 11 10 10 10 10 10 10 9 9 8 9 10 10 9 8 8 8 9 6 7 7 7 7
22 21 21 22 25 26 27 27 27 25 24 22 21 20 17 16 16 14 13 13 12 11 11 11 11 11 10 9 9 8 8 9 9 9 9 7 7 8 5 5 6 6 6
Wind_Direction
315 316 326 337 335 325 304 275 268 279 275 273 308 287 265 259 259 267 297 316 302 287 295 309 311 313 311 310 308 306 300 288 273 286 281 279 252 266 287 294 307 313 314
15 20 354 348 344 333 306 299 289 287 268 253 284 292 273 263 275 293 297 285 293 294 301 312 310 308 306 312 312 305 298 293 279 275 280 257 268 278 288 294 298 307 310
16 9 355 354 355 352 336 324 309 295 262 265 299 299 281 287 292 291 285 291 287 300 311 311 306 306 308 313 313 305 297 292 284 278 276 275 263 268 279 285 293 291 290
356 353 354 358 350 346 341 321 304 284 286 297 298 289 284 306 298 279 292 297 307 312 311 309 303 304 304 307 307 302 299 302 295 274 278 276 273 262 256 273 280 289 295
334 339 338 338 340 338 332 318 305 293 300 303 305 313 331 305 283 300 309 313 315 312 309 309 307 307 299 299 303 300 301 295 293 285 281 265 253 255 254 262 259 289 296
310 311 314 325 335 336 326 311 305 290 298 277 302 305 287 290 316 316 314 315 313 310 311 312 312 309 305 303 301 296 293 293 286 282 278 278 265 262 271 266 264 276 293
280 301 315 322 326 330 323 314 310 303 298 301 294 251 327 335 325 323 323 318 318 318 319 319 317 308 308 309 306 301 297 294 283 284 271 265 261 275 277 275 267 256 250
290 301 307 318 322 322 321 322 323 275 312 308 197 305 335 351 341 338 326 327 325 326 325 324 314 312 314 310 306 306 303 305 291 295 294 290 269 268 268 266 268 271 276
297 308 324 318 316 317 315 317 324 302 302 208 212 338 349 346 343 346 335 331 334 334 333 327 323 321 321 315 324 319 298 290 295 289 286 284 287 284 261 262 238 240 249
315 323 317 310 314 315 311 304 305 306 188 173 36 348 341 341 347 350 345 340 339 335 334 335 332 329 330 328 329 322 311 296 298 306 302 297 291 278 265 253 255 246 244
312 312 301 309 313 312 309 291 281 187 171 171 340 335 328 346 352 352 353 347 341 333 332 331 337 334 335 341 343 342 342 338 320 308 307 307 303 289 269 255 249 245 236
294 290 296 312 315 328 347 58 159 176 200 294 313 309 319 345 355 354 350 347 342 339 338 334 338 336 340 345 347 349 352 354 353 349 341 331 323 311 292 271 256 250 250
282 277 296 306 315 314 305 220 192 192 266 280 290 305 325 345 355 357 354 350 352 347 346 337 337 342 347 352 354 3 12 6 355 345 334 330 333 329 321 303 269 261 263
280 276 298 310 307 305 272 213 200 253 274 280 295 302 320 340 354 359 356 354 351 347 353 353 358 0 6 3 9 15 15 8 359 352 345 347 349 353 358 358 321 277 267
284 283 290 295 296 297 219 222 267 284 277 279 301 301 310 331 354 348 347 350 352 343 344 1 9 7 6 1 2 9 10 9 5 1 356 358 0 6 13 20 29 43 58
298 304 283 274 274 253 236 261 282 286 283 293 290 292 307 322 344 339 345 348 354 352 1 11 11 9 2 354 356 356 2 3 5 6 7 9 4 2 15 25 31 48 48
315 309 279 283 271 239 236 251 285 296 293 294 308 304 289 307 321 334 338 344 357 3 15 7 8 6 1 356 357 2 357 2 3 13 17 19 17 21 21 22 30 29 27
310 301 279 293 283 255 245 257 264 267 288 301 306 301 290 281 308 317 322 339 349 3 5 2 352 358 360 359 1 2 1 5 11 14 18 21 22 24 19 15 31 26 15
301 301 284 288 289 239 247 254 261 257 290 297 296 295 298 279 294 298 306 324 326 336 345 345 350 347 354 356 354 1 2 4 10 15 18 18 19 21 18 22 20 21 20
299 289 275 285 248 240 253 256 267 252 274 283 295 299 295 279 284 294 296 304 307 310 322 330 336 341 341 353 355 1 2 3 5 9 13 15 16 17 14 10 11 8 9
314 296 268 262 252 265 273 267 254 252 259 279 287 289 289 269 282 286 291 290 296 298 301 310 322 333 333 339 345 353 1 1 359 360 3 7 10 9 7 6 4 6 4
306 305 261 249 265 273 259 271 264 263 270 262 281 282 285 274 275 281 283 288 291 288 293 296 306 316 328 326 334 338 348 353 352 353 356 358 1 3 2 3 5 9 8
308 291 264 247 256 260 255 265 270 273 271 264 269 271 275 275 277 269 277 281 280 282 282 287 293 300 312 321 326 327 336 345 346 344 346 350 353 355 357 358 1 3 4
310 300 273 248 251 258 260 262 268 274 271 266 263 262 268 271 271 269 269 269 270 276 273 277 282 287 295 307 319 319 327 336 339 335 333 338 343 344 350 353 2 359 358
302 297 276 253 255 259 261 262 264 270 268 267 264 265 254 262 269 266 261 262 260 266 270 271 273 281 281 290 306 309 316 326 329 324 321 323 327 337 336 349 354 6 10
302 299 283 264 259 264 265 263 263 261 264 261 260 255 253 261 264 262 260 255 257 261 262 264 269 277 270 276 292 296 306 319 322 318 318 316 316 331 327 334 355 4 10